Location: Balmoral
(33.0667°S, 151.5833°E)
Time: 01:01:16
(UTC+00:00)

COSMOS 2428 - Pass Details

Date: 18 September 2020
Orbit: 844 x 859 km, 70.9° (Epoch: 21 October)

Event Time Altitude Azimuth Distance (km) Brightness Sun altitude
Rises 18:17:02 0° 203° (SSW) 3,432 5.8 -19.7°
Reaches altitude 10° 18:19:30 10° 204° (SSW) 2,490 5.0 -19.2°
Maximum altitude 18:25:13 77° 289° (WNW) 877 2.6 -18.0°
Drops below altitude 10° 18:30:52 10° 14° (NNE) 2,465 5.2 -16.8°
Sets 18:33:18 0° 15° (NNE) 3,394 5.9 -16.3°
